Regional Weather Roundup
Issued by NWS Cleveland, OH

Home | Current Version | Previous Version | Graphics & Text | Print | Product List | Glossary On
Versions: 1 2 3 4 5 6 7 8 9 10 11 12 13 14 15 16 17 18 19 20 21 22 23 24 25 26 27 28 29 30 31 32 33 34 35 36 37 38 39 40 41 42 43 44 45 46 47 48 49 50
000
ASUS41 KCLE 240610
RWRCLE
OHIO REGIONAL WEATHER ROUNDUP
NATIONAL WEATHER SERVICE WILMINGTON, OH
100 AM EST FRI FEB 24 2017

NOTE: "FAIR" INDICATES FEW OR NO CLOUDS BELOW 12,000 FEET WITH NO
SIGNIFICANT WEATHER AND/OR OBSTRUCTIONS TO VISIBILITY.

OHZ001>008-015>018-024>027-034-035-043-044-240700-
   NORTHWEST OHIO

CITY           SKY/WX    TMP DP  RH WIND       PRES   REMARKS
DEFIANCE       CLOUDY    46  42  86 E13       29.75R
FINDLAY        FAIR      52  46  80 NE12      29.73R
TOLEDO EXPRESS CLOUDY    43  42  97 E14       29.76F
TOLEDO EXEC    CLOUDY    43  42  97 NE10      29.79F
LIMA           MOCLDY    58  55  90 S8        29.71F
$$

OHZ009>014-019>023-028>033-038-089-240700-
   NORTHEAST OHIO

CITY           SKY/WX    TMP DP  RH WIND       PRES   REMARKS
CLE-HOPKINS    LGT RAIN  54  49  83 NE5       29.78F FOG
CLE-LAKEFRONT  LGT RAIN  40  38  93 NE9       29.76F
CUY CO. ARPT   NOT AVBL
LORAIN-ELYRIA  LGT RAIN  50  46  86 NE3       29.76F FOG
ASHTABULA      CLOUDY    50  49  96 CALM      29.80S FOG
AKRON-CANTON   CLOUDY    57  54  89 S9        29.79S
WOOSTER        MOCLDY    53  52  96 S5        29.77F
MANSFIELD      FAIR      57  55  93 SE13      29.75F
YOUNGSTOWN     CLOUDY    56  53  90 SE7       29.81S
$$

OHZ042-051>053-060>062-070>072-077>081-240700-
  SOUTHWEST OHIO

CITY           SKY/WX    TMP DP  RH WIND       PRES   REMARKS
CINC-COVINGTON MOCLDY    60  55  83 S10       29.72F
CINC-LUNKEN    MOCLDY    57  55  93 SW6       29.74F
HAMILTON       FAIR      62  56  80 VRB6      29.72F
DAYTON         FAIR      58  54  86 SE8       29.73F
WRIGHT-PAT AFB FAIR      60  59  97 SE9       29.72F
DAYTON GENERAL FAIR      60  55  83 SE13      29.71F
WILMINGTON     FAIR      58  54  86 SE8       29.74F
$$

OHZ036-037-039>041-045>050-054>059-063>069-073>076-082>088-240700-
  CENTRAL AND SOUTHEAST OHIO

CITY           SKY/WX    TMP DP  RH WIND       PRES   REMARKS
COLUMBUS       MOCLDY    60  57  89 SE6       29.75F
OSU AIRPORT    FAIR      60  56  86 S8        29.74F
BOLTON FIELD   FAIR      57  55  91 S8        29.76F
RICKENBACK AFB FAIR      58  55  89 S7        29.75F
NEWARK         FAIR      58  53  84 SE5       29.77F
MARION         FAIR      58  54  86 S8        29.75F
LANCASTER      MOCLDY    61  54  77 SE6       29.77F
ZANESVILLE     CLOUDY    59  54  83 S5        29.79S
NEW PHILLY     CLOUDY    55  55 100 SE3       29.80F FOG
$$




USA.gov is the U.S. government's official web portal to all federal, state and local government web resources and services.